Intelsat IS-14

operational
NORAD ID: 36097 Int'l Des: 2009-064 Owner: INTELD Country: US
HEOCIRCULARGSOGEO

About Intelsat IS-14

Description loading...

Live Position

Loading 3D Globe...

Upcoming Passes

Altitude History

Altitude vs Time

uPlot chart will show altitude changes over time

Two-Line Element Set

1 36097U 09064A 26063.33794595 -.00000285 00000-0 00000-0 0 9992
2 36097 0.0205 94.5133 0002590 264.2434 239.9777 1.00271298 59558
Epoch: Mar 4, 2026 • Age: 19 hours

Current Status

Altitude 35778.7 km
Velocity 3.08 km/s
Sub-Earth Point -0.03°S, 44.98°W
Launch Date Nov 23, 2009
Age 16.2 years
Type communications

Technical Details

Classification Payload
Mass 5663.00 kg
Dry Mass 2517.00 kg
Total Mass 5663.00 kg
Length 7.50 m
Diameter 2.90 m
Span 32.50 m
Shape Box + 2 Pan
Manufacturer LOR
Bus Type SSL-1300
Phase Status In Orbit
Owner/State INTELD/US

Large Constellations

Loading constellations...